CAPE
0 0 0 0 0 0 0 0 0 0 0 0 0 0 0 0 0 0 0 0 0 0 0 0 0 0 0 0 5 33 116 233 505
0 0 0 0 0 0 0 0 0 0 0 0 0 0 0 0 0 0 0 0 0 0 0 0 0 1 2 5 3 6 45 113 205
0 0 0 0 0 0 0 0 0 0 0 0 0 0 0 0 0 0 0 0 1 1 1 0 2 3 10 10 7 5 11 115 315
0 0 0 0 0 0 0 0 0 0 0 0 0 0 0 0 0 0 0 6 1 2 3 5 7 12 5 3 3 4 4 20 186
0 0 0 0 0 0 0 0 0 0 0 0 0 0 0 0 0 8 3 14 5 2 6 20 14 12 10 22 29 14 16 12 36
0 0 0 0 0 0 0 0 0 0 0 0 0 0 0 0 3 3 48 56 55 48 28 16 10 6 7 14 19 37 7 2 7
0 0 0 0 0 0 0 0 0 0 0 0 0 0 0 0 5 2 34 11 15 13 11 3 14 54 54 39 22 20 27 7 4
0 0 0 0 0 0 0 0 0 0 0 0 0 0 0 0 1 0 10 36 48 44 27 23 10 14 7 10 26 19 6 44 20
0 0 0 0 0 0 0 0 0 0 0 0 0 0 0 0 0 0 0 14 34 42 29 32 31 14 68 49 20 30 36 40 48
0 0 0 0 0 0 0 0 0 0 0 0 0 0 0 0 0 0 0 0 9 34 29 27 25 36 76 48 34 28 24 39 25
0 0 0 0 0 0 0 0 0 0 0 0 0 0 0 0 0 0 0 0 0 1 8 7 12 27 62 78 67 45 42 34 43
0 0 0 0 0 0 0 0 0 0 0 0 0 0 0 0 0 0 0 0 0 0 0 6 8 8 34 66 71 73 65 53 42
0 0 0 0 0 0 0 0 0 0 0 0 0 0 0 0 0 0 0 0 0 0 0 0 7 7 11 34 44 44 36 32 17
0 0 0 0 0 0 0 0 0 0 0 0 0 0 0 0 0 0 0 0 0 0 0 0 0 0 5 9 14 16 12 12 8
0 0 0 0 0 0 0 0 0 0 0 0 0 0 0 0 0 0 0 0 0 0 0 0 0 0 0 0 5 14 15 13 10
0 0 0 0 0 0 0 0 0 0 0 0 0 0 0 0 0 0 0 0 0 0 0 0 0 0 0 0 0 3 10 14 17
0 0 0 0 0 0 0 0 0 0 0 0 0 0 0 0 0 0 0 0 0 0 0 0 0 0 0 0 0 0 0 0 1
0 0 0 0 0 0 0 0 0 0 0 0 0 0 0 0 0 0 0 0 0 0 0 0 0 0 0 0 0 0 0 0 0
0 0 0 0 0 0 0 0 0 0 0 0 0 0 0 0 0 0 0 0 0 0 0 0 0 0 0 0 0 0 0 0 0
0 0 0 0 0 0 0 0 0 0 0 0 0 0 0 0 0 0 0 0 0 0 0 0 0 0 0 0 0 0 0 0 0
CIN
-0 -0 -0 -0 -0 -0 -0 -0 -0 -0 -0 -0 -0 -0 -0 -0 -0 -0 -0 -0 -0 -0 -0 -0 -0 -0 -0 -0 -105 -164 -77 -28 -4
-0 -0 -0 -0 -0 -0 -0 -0 -0 -0 -0 -0 -0 -0 -0 -0 -0 -0 -0 -0 -0 -0 -0 -0 -0 -0 -0 -0 -0 -188 -165 -122 -77
-0 -0 -0 -0 -0 -0 -0 -0 -0 -0 -0 -0 -0 -0 -0 -0 -0 -0 -0 -0 -0 -0 -0 -0 -0 -0 -0 -0 -0 -0 -303 -117 -23
-0 -0 -0 -0 -0 -0 -0 -0 -0 -0 -0 -0 -0 -0 -0 -0 -0 -0 -0 -0 -0 -0 -0 -0 -0 -0 -0 -0 -0 -0 -0 -313 -92
-0 -0 -0 -0 -0 -0 -0 -0 -0 -0 -0 -0 -0 -0 -0 -0 -0 -0 -1 -0 -0 -0 -0 -0 -0 -0 -0 -1 -2 -0 -0 -97 -298
-0 -0 -0 -0 -0 -0 -0 -0 -0 -0 -0 -0 -0 -0 -0 -0 -0 -0 -1 -0 -0 -0 -1 -0 -0 -0 -1 -0 -0 -2 -0 -0 -0
-0 -0 -0 -0 -0 -0 -0 -0 -0 -0 -0 -0 -0 -0 -0 -0 -0 -3 -2 -0 -0 -0 -0 -0 -0 -0 -0 -0 -0 -0 -0 -0 -0
-0 -0 -0 -0 -0 -0 -0 -0 -0 -0 -0 -0 -0 -0 -0 -0 -0 -0 -8 -0 -0 -0 -0 -0 -1 -0 -0 -0 -0 -0 -2 -2 -1
-0 -0 -0 -0 -0 -0 -0 -0 -0 -0 -0 -0 -0 -0 -0 -0 -0 -0 -0 -2 -0 -0 -0 -2 -0 -0 -0 -0 -0 -0 -0 -0 -3
-0 -0 -0 -0 -0 -0 -0 -0 -0 -0 -0 -0 -0 -0 -0 -0 -0 -0 -0 -0 -0 -0 -0 -0 -0 -0 -0 -0 -0 -0 -0 -0 -0
-0 -0 -0 -0 -0 -0 -0 -0 -0 -0 -0 -0 -0 -0 -0 -0 -0 -0 -0 -0 -0 -0 -0 -0 -1 -0 -0 -0 -0 -0 -0 -0 -0
-0 -0 -0 -0 -0 -0 -0 -0 -0 -0 -0 -0 -0 -0 -0 -0 -0 -0 -0 -0 -0 -0 -0 -0 -0 -0 -0 -0 -0 -0 -0 -0 -0
-0 -0 -0 -0 -0 -0 -0 -0 -0 -0 -0 -0 -0 -0 -0 -0 -0 -0 -0 -0 -0 -0 -0 -0 -0 -0 -0 -0 -0 -0 -0 -0 -0
-0 -0 -0 -0 -0 -0 -0 -0 -0 -0 -0 -0 -0 -0 -0 -0 -0 -0 -0 -0 -0 -0 -0 -0 -0 -0 -0 -0 -0 -0 -0 -0 -0
-0 -0 -0 -0 -0 -0 -0 -0 -0 -0 -0 -0 -0 -0 -0 -0 -0 -0 -0 -0 -0 -0 -0 -0 -0 -0 -0 -0 -0 -0 -0 -0 -0
-0 -0 -0 -0 -0 -0 -0 -0 -0 -0 -0 -0 -0 -0 -0 -0 -0 -0 -0 -0 -0 -0 -0 -0 -0 -0 -0 -0 -0 -0 -0 -0 -0
-0 -0 -0 -0 -0 -0 -0 -0 -0 -0 -0 -0 -0 -0 -0 -0 -0 -0 -0 -0 -0 -0 -0 -0 -0 -0 -0 -0 -0 -0 -0 -0 -0
-0 -0 -0 -0 -0 -0 -0 -0 -0 -0 -0 -0 -0 -0 -0 -0 -0 -0 -0 -0 -0 -0 -0 -0 -0 -0 -0 -0 -0 -0 -0 -0 -0
-0 -0 -0 -0 -0 -0 -0 -0 -0 -0 -0 -0 -0 -0 -0 -0 -0 -0 -0 -0 -0 -0 -0 -0 -0 -0 -0 -0 -0 -0 -0 -0 -0
-0 -0 -0 -0 -0 -0 -0 -0 -0 -0 -0 -0 -0 -0 -0 -0 -0 -0 -0 -0 -0 -0 -0 -0 -0 -0 -0 -0 -0 -0 -0 -0 -0
Wind_Speed
11 11 11 10 10 10 11 12 12 12 12 12 13 12 11 11 8 7 8 10 11 12 13 12 12 11 11 12 12 12 12 12 13
11 11 10 9 10 11 11 11 11 12 12 12 12 11 11 8 9 8 10 9 11 12 11 11 11 11 11 12 12 12 12 11 11
11 10 9 10 10 10 10 10 10 11 11 11 11 9 9 8 8 7 9 10 11 11 11 10 11 10 11 11 12 12 12 12 12
11 10 10 9 9 9 10 10 10 11 11 11 9 7 8 8 6 10 7 8 11 11 10 10 10 11 11 10 10 11 11 12 12
10 11 9 8 9 9 9 8 9 10 10 9 5 3 8 8 7 8 7 9 11 12 11 11 11 9 8 8 8 9 10 10 11
8 10 9 8 9 9 8 7 5 7 9 5 2 7 5 7 7 7 9 10 15 14 13 13 14 11 11 11 11 10 7 8 9
9 7 7 7 6 7 6 2 3 7 4 4 5 5 7 6 8 7 16 12 12 12 13 11 11 12 12 11 11 12 11 8 8
5 5 5 4 4 3 3 2 3 5 5 5 5 6 6 6 7 11 16 15 14 15 14 13 11 13 12 11 11 11 9 11 8
4 3 3 2 2 4 3 3 4 5 6 7 8 8 6 5 6 9 15 16 14 14 13 15 14 14 15 9 12 11 11 12 15
4 4 3 3 2 3 3 3 3 4 7 7 7 8 8 7 6 6 12 14 15 15 14 13 14 14 17 14 13 13 13 13 12
4 4 3 4 4 3 3 3 3 3 6 7 7 7 7 7 7 6 7 13 13 13 12 12 13 14 16 16 13 13 11 11 12
5 4 3 3 4 5 4 4 2 3 5 7 7 6 7 7 7 6 5 8 11 12 12 11 11 13 15 16 18 19 17 18 18
4 4 4 4 3 4 4 3 3 2 4 5 5 5 5 7 7 6 6 5 4 10 11 11 13 13 13 15 16 16 17 16 16
6 4 5 5 3 4 3 4 3 3 3 4 5 5 5 5 5 6 7 6 4 4 8 10 11 13 14 14 13 14 13 13 14
6 5 5 5 4 4 3 5 3 3 2 4 5 4 4 3 3 4 5 5 4 5 5 4 6 11 14 15 15 15 14 14 14
7 5 6 4 4 4 5 5 6 4 1 3 4 4 3 3 3 2 3 5 4 5 4 3 3 6 14 15 16 16 16 16 15
6 6 6 6 5 5 4 4 4 5 1 2 2 4 4 3 2 3 3 4 3 5 4 4 4 5 5 9 16 16 16 16 16
6 7 6 6 5 4 4 3 2 4 3 4 3 2 2 4 3 3 3 3 3 3 4 4 4 6 6 8 10 15 16 16 17
7 7 7 6 4 5 4 3 3 3 4 3 3 4 3 1 5 4 3 3 4 4 3 3 4 4 6 8 12 14 15 16 17
7 7 6 6 4 5 5 4 3 3 3 3 2 2 2 2 2 3 3 3 3 3 3 3 3 4 3 5 7 12 14 16 17
Wind_Direction
91 84 77 69 62 63 60 58 57 55 52 48 43 33 -0 320 57 48 53 45 27 30 28 29 33 36 37 38 33 26 25 20 18
96 87 81 73 66 61 59 59 58 56 53 48 41 30 352 35 51 57 43 34 29 32 33 35 37 37 38 38 35 33 27 22 17
95 90 83 73 68 62 62 60 59 59 56 50 44 25 349 61 61 54 62 25 40 41 43 42 43 42 40 36 35 34 31 27 32
93 85 79 75 67 63 61 63 61 62 62 55 50 27 348 63 47 57 47 41 51 53 50 53 54 47 39 36 33 33 31 32 28
110 112 73 73 72 66 62 64 66 71 67 61 44 322 300 67 67 60 13 60 67 65 62 57 55 57 48 41 38 36 35 38 34
103 72 78 72 70 67 62 62 87 101 93 84 283 282 74 68 65 47 37 60 65 63 66 51 43 29 34 32 28 29 34 26 31
94 98 101 91 89 89 80 62 235 210 115 129 218 78 78 68 76 45 21 49 54 50 55 48 38 47 57 51 43 36 37 48 42
163 151 156 135 209 103 157 162 51 67 77 75 76 65 74 85 76 39 30 43 58 59 53 37 39 36 35 34 46 36 42 43 62
147 118 116 114 91 92 54 76 83 87 68 75 73 71 70 71 91 58 37 37 48 51 47 41 45 37 25 51 48 45 56 56 57
130 129 114 101 90 69 87 77 105 96 91 88 75 65 70 73 95 82 49 42 41 43 48 39 30 30 43 57 59 54 50 53 56
141 132 124 111 91 77 69 79 91 120 99 96 91 92 80 73 68 95 82 62 47 44 44 44 35 27 37 53 55 52 50 55 59
150 120 129 112 99 105 106 99 89 104 107 100 92 77 84 87 74 63 60 113 73 55 47 43 44 32 25 42 55 54 53 49 44
159 146 127 126 117 110 109 79 91 118 121 112 106 98 78 74 81 72 63 39 60 78 59 49 46 39 31 31 39 45 42 41 38
156 144 136 143 119 102 110 88 93 116 102 114 101 95 91 87 75 72 76 61 46 54 101 82 58 49 44 37 33 34 36 35 33
149 142 149 145 133 126 111 108 81 82 119 119 114 106 95 82 61 85 86 53 58 56 48 154 94 70 52 45 40 37 35 34 30
154 148 150 164 141 135 129 116 123 111 118 139 129 120 128 103 119 92 67 60 73 52 43 42 71 115 74 49 43 33 27 23 20
161 155 158 158 139 141 146 153 118 104 69 282 214 162 155 138 115 94 68 62 77 62 51 43 56 74 89 75 47 34 25 18 13
166 162 160 157 143 135 120 127 168 124 96 34 314 199 100 147 154 123 115 60 83 52 66 82 65 69 67 56 40 27 17 11 6
165 161 156 156 138 140 123 122 124 142 128 125 57 23 5 331 151 151 129 93 76 58 72 95 85 85 107 103 44 21 10 5 360
161 164 155 143 149 131 126 137 96 82 107 89 133 67 59 38 4 122 119 146 104 74 65 87 84 81 76 76 38 12 8 2 356